Flag for U.S.A. Weather past 2 weeks in Aurora, Colorado, U.S.A.

Now
47 °F

Partly sunny.


Feels Like: 43 °F
Forecast: 43 / 70 °F
Wind: 8 mph from South

Location: Buckley Air Force Base

Current Time: May 26, 2015 at 8:09:07 AM

Latest Report: May 26, 2015 at 6:58 AM


Visibility: 10 mi

Pressure: 29.96 "Hg

Humidity: 86%

Dew point: 43 °F

Location of AuroraLocation

Historic Weather in Aurora — Graph

°F

Aurora temperature yesterday

Maximum temperature yesterday: 66 °F (at 2:58 PM)
Minimum temperature yesterday: 41 °F (at 3:58 AM)
Average temperature yesterday: 52 °F

Past Weeks' High & Low Weather Summary

 TemperatureHumidityPressure
High72 °F (May 14, 2:58 PM)100% (May 19, 4:58 AM)30.31 "Hg (May 19, 4:58 AM)
Low31 °F (May 11, 5:58 AM)22% (May 14, 1:58 PM)29.54 "Hg (May 15, 3:58 PM)
Average50 °F75%29.92 "Hg
* Reported May 11 5:58 AM — May 26 5:58 AM, Aurora, Weather by CustomWeather, © 2015

Note: Actual official high and low records may vary slightly from our data, if they occured in-between our weather recording intervals... More about our weather records

Advertising

Aurora weather history for previous 24 hours

 ConditionsComfort  
Time TempWeatherWind HumidityBarometerVisibility
5:58 AM
Tue, May 26
44 °FPassing clouds.7 mph90%29.93 "Hg10 mi
4:58 AM46 °FPassing clouds.8 mph87%29.90 "Hg10 mi
3:58 AM46 °FPassing clouds.8 mph90%29.88 "Hg10 mi
2:58 AM47 °FPassing clouds.7 mph88%29.87 "Hg10 mi
1:58 AM47 °FPassing clouds.6 mph89%29.89 "Hg10 mi
12:58 AM48 °FPassing clouds.8 mph92%29.90 "Hg10 mi
11:58 PM
Mon, May 25
48 °FPartly cloudy.7 mph94%29.90 "Hg10 mi
10:58 PM50 °FPartly cloudy.7 mph94%29.90 "Hg10 mi
9:58 PM51 °FPartly cloudy.9 mph89%29.91 "Hg10 mi
8:58 PM51 °FPartly sunny.7 mph84%29.89 "Hg10 mi
7:58 PM53 °FThunderstorms. Broken clouds.3 mph79%29.87 "Hg7 mi
6:58 PM55 °FThundershowers. Broken clouds.15 mph68%29.85 "Hg10 mi
4:58 PM59 °FThundershowers. Broken clouds.15 mph55%29.80 "Hg10 mi
3:58 PM66 °FBroken clouds.13 mph38%29.79 "Hg10 mi
2:58 PM66 °FBroken clouds.10 mph40%29.78 "Hg10 mi
1:58 PM64 °FBroken clouds.7 mph39%29.79 "Hg10 mi
12:58 PM61 °FBroken clouds.10 mph43%29.79 "Hg10 mi
11:58 AM61 °FBroken clouds.6 mph44%29.79 "Hg10 mi
10:58 AM58 °FBroken clouds.3 mph46%29.80 "Hg10 mi
9:58 AM55 °FBroken clouds.No wind55%29.81 "Hg10 mi
8:58 AM53 °FBroken clouds.5 mph61%29.80 "Hg10 mi
Weather by CustomWeather, © 2015

See weather overviewHow to use our weather pages